Location: Pitton
(51.0667°N, 1.7000°W)
Time: 17:57:08
(UTC+00:00)

SL-16 R/B - Pass Details

Date: 17 September 2019
Orbit: 986 x 1006 km, 99.4° (Epoch: 23 October)

Event Time Altitude Azimuth Distance (km) Brightness Sun altitude
Exits shadow 23:50:33 20° 66° (ENE) 2,146 4.4 -36.8°
Maximum altitude 23:51:46 21° 50° (NE) 2,089 4.5 -36.8°
Drops below altitude 10° 23:56:11 10° 5° (N) 2,782 5.6 -36.9°
Sets 23:59:17 0° 350° (N) 3,739 6.5 -36.9°
